Search your local weather  

 

Hazardous Weather Conditions

No active alerts for DENVER, COLORADO

Current Conditions: DENVER, COLORADO

Mostly Clear


80.6 F

Last Updated on Jul 17 2024, 12:45 PM MDT
Humidity: 32%
Wind Speed: 9.2 mph
Barometer: 30.32 in
Dewpoint: 48.2 F
Visibility: 10.00 mi
Precip: --
Heat Index: 79.9 F
Wind Chill: NA
Current conditions at:

BROOMFIELD/JEFFC (KBJC)

Lat: 39.92 Lon: -105.12

active severe weather and emergency alerts image weather storm and storm spotter reports image weather observation monitoring service image
Active
Alerts
Storm Reports Weather
Monitoring

5 Day Forecast for DENVER, COLORADO (80202)

Wednesday

T-storms Likely

High 86 °F
Wednesday
Night
Isolated T-storm

Low 60 °F
Thursday

Chance of T-storms

High 92 °F
Thursday
Night
Isolated T-storm

Low 63 °F
Friday

Chance of T-storms

High 92 °F
Friday
Night
Partly Cloudy

Low 62 °F
Saturday

Chance of T-storms

High 86 °F
Saturday
Night
Partly Cloudy

Low 60 °F
Sunday

Chance of T-storms

High 83 °F

Sign-up For Email & Text Message Weather Alert Notification Services



Advertise Here

Observation History for DENVER, COLORADO


Time Wind
(mph)
Vis
(mi)
Weather Precip (in) Temperature (F) Relative
Humidity
Wind
Chill
(F)
Heat
Index
(F)
Pressure
Air Dwpt altimeter
(in)
sea level
(mb)
12:45 PM MDT 9.2 10.00 Mostly Clear -- 80.6 48.2 32% NA 79.9 30.32 1026.8
11:45 AM MDT SE 6.9 10.00 Mostly Clear -- 77.0 50.0 39% NA 76.3 30.34 1027.4
10:50 AM MDT 3.4 10.00 Mostly Clear -- 75.2 50.0 41% NA 74.3 30.36 1028.1
08:56 AM MDT 3.4 10.00 Partly Cloudy -- 71.6 50.0 46% NA 70.7 30.38 1028.5
07:50 AM MDT 5.8 10.00 Mostly Cloudy -- 68.0 50.0 53% NA NA 30.36 1028.1
06:45 AM MDT 6.9 10.00 Mostly Cloudy -- NULL 46.4 % NA NA 30.33 1027.1
06:28 AM MDT 5.8 10.00 Partly Cloudy -- 62.6 48.2 59% NA NA 30.33 1027.1
05:54 AM MDT 9.2 10.00 Partly Cloudy -- 60.8 46.4 59% NA NA 30.31 1026.4
05:15 AM MDT 3.4 10.00 Clear -- 60.8 46.4 59% NA NA 30.30 1026.1
04:55 AM MDT 0.0 10.00 Clear -- 62.6 48.2 59% NA NA 30.30 1026.1
04:35 AM MDT 4.7 10.00 Clear -- 64.4 46.4 52% NA NA 30.29 1025.7
03:55 AM MDT 5.8 10.00 Partly Cloudy -- 64.4 46.4 52% NA NA 30.28 1025.4
03:35 AM MDT W 3.4 10.00 Partly Cloudy -- 64.4 48.2 56% NA NA 30.27 1025.1
02:35 AM MDT 6.9 10.00 Clear -- 68.0 50.0 53% NA NA 30.26 1024.7
02:15 AM MDT 3.4 10.00 Clear -- 66.2 50.0 56% NA NA 30.26 1024.7
01:55 AM MDT 0.0 10.00 Clear -- 66.2 51.8 60% NA NA 30.25 1024.4
01:35 AM MDT 0.0 10.00 Clear -- 68.0 51.8 56% NA NA 30.25 1024.4
01:15 AM MDT 0.0 10.00 Clear -- 68.0 50.0 53% NA NA 30.25 1024.4
12:55 AM MDT 0.0 10.00 Clear -- 69.8 44.6 40% NA NA 30.25 1024.1
12:35 AM MDT 0.0 10.00 Clear -- 69.8 44.6 40% NA NA 30.23 1023.7
12:15 AM MDT 0.0 10.00 Clear -- 69.8 46.4 43% NA NA 30.23 1023.7
11:55 PM MDT SW 4.7 10.00 Clear -- 69.8 46.4 43% NA NA 30.23 1023.7
11:35 PM MDT 5.8 10.00 Clear -- 69.8 46.4 43% NA NA 30.23 1023.7
11:15 PM MDT 6.9 10.00 Clear -- 69.8 48.2 46% NA NA 30.25 1024.1

Regional Weather Observation

BROOMFIELD/JEFFC (KBJC)

Mostly Clear
80.6 F

ERIE MUNI (KEIK)

Mostly Clear
85.8 F

BOULDER MUNI (KBDU)

Clear
82.4 F

DAKOTA HILL (KC99)

Thunderstorms
46.4 F

LONGMONT/VBRAND (KLMO)

Clear
85.1 F

FT COLLINS/LOVEL (KFNL)

Clear
82.9 F

Advertise Here


Advertise Here